KLM1469 EHAM-LFML

Flight info

Callsign KLM1469
Flight time 1h 37m
Altitude 36000
Route WOODY N872 CIV Y50 REM B3 VATRI G40 TRO B373 MOU A27 CFA T48 LERGA
Aircraft B738/M-SDE2E3FGHIRWXY/LB1

Departure

Time 2026-04-27 18:06
Airport Amsterdam Airport Schiphol (EHAM)

Arrival

Time 2026-04-27 19:43
Airport Marseille Provence Airport (LFML)
Time Latitude Longitude Altitude Speed Heading
2026-04-27 17:33 52.30705 4.77342 13 ft 0 kts
2026-04-27 17:53 52.30689 4.77341 13 ft 4 kts
2026-04-27 17:53 52.30661 4.77325 13 ft 5 kts 32°
2026-04-27 17:53 52.30641 4.77292 13 ft 3 kts 68°
2026-04-27 17:53 52.30639 4.77283 13 ft 0 kts 83°
2026-04-27 17:54 52.30641 4.77364 13 ft 15 kts 90°
2026-04-27 17:55 52.30658 4.77553 13 ft 18 kts 50°
2026-04-27 17:55 52.30789 4.77597 13 ft 20 kts
2026-04-27 17:55 52.30926 4.77613 13 ft 20 kts
2026-04-27 17:55 52.31063 4.77625 13 ft 20 kts
2026-04-27 17:56 52.31198 4.77637 13 ft 19 kts
2026-04-27 17:56 52.31333 4.77650 13 ft 19 kts
2026-04-27 17:56 52.31464 4.77625 13 ft 20 kts 327°
2026-04-27 17:56 52.31559 4.77462 13 ft 20 kts 295°
2026-04-27 17:57 52.31572 4.77244 13 ft 20 kts 267°
2026-04-27 17:57 52.31566 4.77026 13 ft 19 kts 267°
2026-04-27 17:57 52.31559 4.76804 13 ft 19 kts 267°
2026-04-27 17:57 52.31551 4.76584 13 ft 19 kts 266°
2026-04-27 17:58 52.31543 4.76364 13 ft 19 kts 266°
2026-04-27 17:58 52.31535 4.76146 13 ft 19 kts 266°
2026-04-27 17:58 52.31527 4.75927 13 ft 19 kts 266°
2026-04-27 17:58 52.31518 4.75707 13 ft 19 kts 266°
2026-04-27 17:59 52.31511 4.75489 13 ft 19 kts 266°
2026-04-27 17:59 52.31504 4.75266 13 ft 19 kts 267°
2026-04-27 17:59 52.31498 4.75057 13 ft 20 kts 267°
2026-04-27 17:59 52.31489 4.74784 13 ft 27 kts 268°
2026-04-27 18:00 52.31479 4.74492 13 ft 24 kts 266°
2026-04-27 18:00 52.31474 4.74258 13 ft 17 kts 282°
2026-04-27 18:00 52.31553 4.74160 13 ft 17 kts 358°
2026-04-27 18:00 52.31681 4.74166 13 ft 18 kts
2026-04-27 18:01 52.31785 4.74175 13 ft 12 kts
2026-04-27 18:01 52.31872 4.74182 13 ft 19 kts
2026-04-27 18:01 52.32012 4.74144 13 ft 19 kts 302°
2026-04-27 18:01 52.32039 4.73953 13 ft 19 kts 274°
2026-04-27 18:02 52.32050 4.73647 13 ft 32 kts 273°
2026-04-27 18:02 52.32109 4.73334 13 ft 26 kts 320°
2026-04-27 18:02 52.32229 4.73156 13 ft 20 kts 319°
2026-04-27 18:02 52.32327 4.73018 13 ft 18 kts 319°
2026-04-27 18:03 52.32449 4.72849 13 ft 27 kts 319°
2026-04-27 18:03 52.32584 4.72658 13 ft 23 kts 319°
2026-04-27 18:03 52.32690 4.72500 13 ft 20 kts 312°
2026-04-27 18:03 52.32788 4.72315 13 ft 22 kts 311°
2026-04-27 18:04 52.32833 4.72120 13 ft 16 kts 270°
2026-04-27 18:04 52.32852 4.71951 13 ft 17 kts 303°
2026-04-27 18:04 52.32947 4.71768 13 ft 26 kts 311°
2026-04-27 18:04 52.33053 4.71558 13 ft 17 kts 295°
2026-04-27 18:05 52.33052 4.71406 13 ft 13 kts 236°
2026-04-27 18:05 52.32978 4.71261 13 ft 21 kts 218°
2026-04-27 18:05 52.32873 4.71087 13 ft 20 kts 253°
2026-04-27 18:05 52.32898 4.70924 13 ft 13 kts 332°
2026-04-27 18:06 52.32995 4.70904 13 ft 19 kts
2026-04-27 18:06 52.33391 4.70939 13 ft 100 kts
2026-04-27 18:06 52.34338 4.71024 139 ft 162 kts
2026-04-27 18:06 52.35485 4.71130 1106 ft 162 kts
2026-04-27 18:07 52.36590 4.71230 2338 ft 151 kts
2026-04-27 18:07 52.37661 4.71331 3130 ft 161 kts
2026-04-27 18:07 52.38875 4.71451 3592 ft 190 kts
2026-04-27 18:07 52.40214 4.72150 3941 ft 217 kts 33°
2026-04-27 18:08 52.41211 4.74078 4597 ft 226 kts 65°
2026-04-27 18:08 52.41437 4.76599 5477 ft 232 kts 99°
2026-04-27 18:08 52.40750 4.78998 6451 ft 237 kts 130°
2026-04-27 18:08 52.39346 4.80430 7343 ft 244 kts 161°
2026-04-27 18:09 52.37678 4.81039 8252 ft 248 kts 167°
2026-04-27 18:09 52.35982 4.81666 9154 ft 252 kts 168°
2026-04-27 18:09 52.34272 4.82290 10055 ft 255 kts 168°
2026-04-27 18:09 52.32504 4.82854 10884 ft 262 kts 171°
2026-04-27 18:10 52.30674 4.83373 11523 ft 276 kts 170°
2026-04-27 18:10 52.28717 4.83930 12022 ft 295 kts 170°
2026-04-27 18:10 52.26630 4.84517 12484 ft 315 kts 171°
2026-04-27 18:10 52.24379 4.84857 12898 ft 336 kts 178°
2026-04-27 18:11 52.21979 4.84857 13403 ft 351 kts 181°
2026-04-27 18:11 52.19477 4.84751 14179 ft 358 kts 181°
2026-04-27 18:11 52.16988 4.84660 14995 ft 361 kts 180°
2026-04-27 18:11 52.14498 4.84584 15925 ft 361 kts 179°
2026-04-27 18:12 52.11999 4.84518 16878 ft 360 kts 180°
2026-04-27 18:12 52.09469 4.84459 17766 ft 360 kts 181°
2026-04-27 18:12 52.06958 4.84404 18506 ft 364 kts 182°
2026-04-27 18:12 52.04411 4.84246 19109 ft 370 kts 187°
2026-04-27 18:13 52.01896 4.83464 19842 ft 369 kts 197°
2026-04-27 18:13 51.99484 4.82111 20694 ft 367 kts 203°
2026-04-27 18:13 51.97112 4.80456 21308 ft 372 kts 207°
2026-04-27 18:13 51.94776 4.78624 21870 ft 377 kts 208°
2026-04-27 18:14 51.92410 4.76731 22427 ft 382 kts 210°
2026-04-27 18:14 51.89976 4.74810 22900 ft 389 kts 210°
2026-04-27 18:14 51.87547 4.72903 23378 ft 395 kts 210°
2026-04-27 18:14 51.85027 4.70933 23985 ft 397 kts 210°
2026-04-27 18:15 51.82574 4.69021 24614 ft 398 kts 210°
2026-04-27 18:15 51.80054 4.67061 25151 ft 401 kts 210°
2026-04-27 18:15 51.77531 4.65101 25681 ft 404 kts 210°
2026-04-27 18:15 51.74981 4.63124 26173 ft 406 kts 210°
2026-04-27 18:16 51.72439 4.61154 26657 ft 409 kts 210°
2026-04-27 18:16 51.69863 4.59161 27104 ft 412 kts 210°
2026-04-27 18:16 51.68114 4.57808 27425 ft 414 kts 210°
2026-04-27 18:16 51.64657 4.55116 27825 ft 422 kts 210°
2026-04-27 18:17 51.61966 4.53026 28186 ft 426 kts 210°
2026-04-27 18:17 51.59294 4.50958 28615 ft 428 kts 210°
2026-04-27 18:17 51.57471 4.49551 28890 ft 430 kts 210°
2026-04-27 18:17 51.53895 4.46797 29397 ft 433 kts 210°
2026-04-27 18:18 51.52068 4.45393 29647 ft 435 kts 210°
2026-04-27 18:18 51.49328 4.43289 30052 ft 436 kts 210°
2026-04-27 18:18 51.46554 4.41162 30409 ft 437 kts 210°
2026-04-27 18:18 51.43832 4.39077 31071 ft 432 kts 209°
2026-04-27 18:19 51.41126 4.37004 31386 ft 434 kts 209°
2026-04-27 18:19 51.38405 4.34955 31740 ft 435 kts 209°
2026-04-27 18:19 51.35602 4.32862 32126 ft 436 kts 209°
2026-04-27 18:19 51.32824 4.30790 32501 ft 436 kts 209°
2026-04-27 18:20 51.30084 4.28692 32812 ft 438 kts 211°
2026-04-27 18:20 51.27309 4.26586 33181 ft 438 kts 210°
2026-04-27 18:20 51.24547 4.24495 33553 ft 438 kts 210°
2026-04-27 18:20 51.21766 4.22389 34051 ft 435 kts 210°
2026-04-27 18:21 51.19074 4.20351 34339 ft 437 kts 210°
2026-04-27 18:21 51.16280 4.18300 34669 ft 438 kts 207°
2026-04-27 18:21 51.13731 4.16722 34998 ft 439 kts 204°
2026-04-27 18:21 51.10842 4.15129 35313 ft 441 kts 203°
2026-04-27 18:22 51.07919 4.13592 35652 ft 441 kts 203°
2026-04-27 18:22 51.04973 4.12025 35949 ft 442 kts 203°
2026-04-27 18:22 51.02027 4.10445 36259 ft 442 kts 203°
2026-04-27 18:22 50.99065 4.08847 36572 ft 442 kts 203°
2026-04-27 18:23 50.96190 4.07292 36870 ft 442 kts 204°
2026-04-27 18:23 50.93259 4.05704 37169 ft 442 kts 203°
2026-04-27 18:23 50.87349 4.02494 37207 ft 445 kts 204°
2026-04-27 18:24 50.81613 3.98843 37213 ft 438 kts 207°
2026-04-27 18:24 50.75934 3.95132 37212 ft 437 kts 207°
2026-04-27 18:25 50.70227 3.91465 37210 ft 437 kts 207°
2026-04-27 18:25 50.64520 3.87825 37211 ft 438 kts 207°
2026-04-27 18:26 50.58711 3.84676 37204 ft 443 kts 197°
2026-04-27 18:26 50.52522 3.84169 37201 ft 451 kts 181°
2026-04-27 18:27 50.46163 3.85208 37201 ft 453 kts 179°
2026-04-27 18:27 50.40892 3.86133 37201 ft 453 kts 179°
2026-04-27 18:28 50.34584 3.87217 37201 ft 453 kts 179°
2026-04-27 18:28 50.28284 3.88288 37201 ft 453 kts 179°
2026-04-27 18:29 50.21979 3.89352 37201 ft 454 kts 179°
2026-04-27 18:29 50.15650 3.90417 37202 ft 454 kts 179°
2026-04-27 18:30 50.09339 3.91478 37202 ft 454 kts 179°
2026-04-27 18:30 50.03014 3.92556 37209 ft 457 kts 179°
2026-04-27 18:31 49.96654 3.93632 37215 ft 457 kts 178°
2026-04-27 18:31 49.90269 3.94707 37216 ft 457 kts 178°
2026-04-27 18:32 49.83942 3.95771 37215 ft 458 kts 178°
2026-04-27 18:32 49.77566 3.96845 37220 ft 458 kts 178°
2026-04-27 18:33 49.71240 3.97912 37198 ft 457 kts 179°
2026-04-27 18:33 49.64932 3.98971 37166 ft 451 kts 179°
2026-04-27 18:34 49.58719 4.00012 37152 ft 450 kts 179°
2026-04-27 18:34 49.52509 4.01048 37144 ft 449 kts 179°
2026-04-27 18:35 49.46283 4.02081 37143 ft 448 kts 179°
2026-04-27 18:35 49.40097 4.03103 37143 ft 449 kts 179°
2026-04-27 18:36 49.33860 4.04092 37142 ft 448 kts 179°
2026-04-27 18:36 49.27673 4.04725 37143 ft 445 kts 185°
2026-04-27 18:37 49.21500 4.04754 37142 ft 444 kts 185°
2026-04-27 18:37 49.15320 4.04868 37142 ft 445 kts 185°
2026-04-27 18:38 49.09089 4.05024 37141 ft 445 kts 184°
2026-04-27 18:38 49.02950 4.05185 37141 ft 444 kts 184°
2026-04-27 18:39 48.96735 4.05347 37140 ft 445 kts 184°
2026-04-27 18:39 48.90558 4.05508 37138 ft 445 kts 184°
2026-04-27 18:40 48.84375 4.05668 37134 ft 445 kts 184°
2026-04-27 18:40 48.78196 4.05819 37130 ft 444 kts 184°
2026-04-27 18:41 48.71986 4.05926 37130 ft 444 kts 184°
2026-04-27 18:41 48.65808 4.06032 37124 ft 444 kts 184°
2026-04-27 18:42 48.60680 4.06120 37123 ft 444 kts 184°
2026-04-27 18:42 48.53676 4.05387 37121 ft 437 kts 195°
2026-04-27 18:43 48.47672 4.03518 37117 ft 436 kts 197°
2026-04-27 18:43 48.42620 4.01893 37117 ft 436 kts 197°
2026-04-27 18:44 48.36754 4.00016 37115 ft 436 kts 197°
2026-04-27 18:44 48.31012 3.98184 37119 ft 436 kts 197°
2026-04-27 18:45 48.25475 3.96420 37116 ft 436 kts 196°
2026-04-27 18:45 48.19485 3.94965 37119 ft 438 kts 192°
2026-04-27 18:46 48.13410 3.93723 37125 ft 439 kts 193°
2026-04-27 18:46 48.07345 3.92426 37131 ft 444 kts 193°
2026-04-27 18:47 48.01264 3.91108 37126 ft 440 kts 193°
2026-04-27 18:47 47.95246 3.89797 37129 ft 436 kts 193°
2026-04-27 18:48 47.89218 3.88487 37133 ft 437 kts 193°
2026-04-27 18:48 47.84202 3.87389 37137 ft 436 kts 193°
2026-04-27 18:49 47.78207 3.86085 37137 ft 436 kts 193°
2026-04-27 18:49 47.71202 3.84571 37138 ft 436 kts 193°
2026-04-27 18:50 47.66184 3.83490 37138 ft 435 kts 193°
2026-04-27 18:50 47.60206 3.82204 37136 ft 436 kts 193°
2026-04-27 18:51 47.54208 3.80913 37136 ft 436 kts 193°
2026-04-27 18:51 47.48222 3.79621 37135 ft 435 kts 193°
2026-04-27 18:52 47.42208 3.78327 37131 ft 435 kts 193°
2026-04-27 18:53 47.33267 3.76408 37127 ft 435 kts 193°
2026-04-27 18:53 47.27244 3.75118 37124 ft 435 kts 193°
2026-04-27 18:54 47.21268 3.73828 37121 ft 434 kts 193°
2026-04-27 18:54 47.15300 3.72548 37119 ft 434 kts 193°
2026-04-27 18:55 47.09332 3.71277 37117 ft 434 kts 193°
2026-04-27 18:55 47.03367 3.70010 37113 ft 434 kts 193°
2026-04-27 18:56 46.97357 3.68738 37113 ft 434 kts 193°
2026-04-27 18:56 46.94174 3.68064 37112 ft 434 kts 193°
2026-04-27 18:57 46.88308 3.66838 37112 ft 434 kts 193°
2026-04-27 18:57 46.82340 3.65603 37112 ft 434 kts 193°
2026-04-27 18:58 46.76356 3.64367 37112 ft 434 kts 193°
2026-04-27 18:58 46.70424 3.62920 37111 ft 431 kts 199°
2026-04-27 18:59 46.64707 3.60288 37112 ft 428 kts 203°
2026-04-27 18:59 46.59070 3.57518 37112 ft 428 kts 203°
2026-04-27 19:00 46.53446 3.54777 37112 ft 428 kts 203°
2026-04-27 19:00 46.47793 3.52033 37112 ft 428 kts 203°
2026-04-27 19:01 46.42139 3.49311 37098 ft 429 kts 202°
2026-04-27 19:01 46.36468 3.46596 37088 ft 430 kts 202°
2026-04-27 19:02 46.30752 3.43867 37085 ft 431 kts 202°
2026-04-27 19:02 46.25062 3.41157 37086 ft 431 kts 202°
2026-04-27 19:03 46.19380 3.38453 37085 ft 431 kts 202°
2026-04-27 19:03 46.13703 3.35754 37085 ft 431 kts 202°
2026-04-27 19:04 46.07980 3.33029 37087 ft 431 kts 202°
2026-04-27 19:04 46.02296 3.30321 37093 ft 431 kts 202°
2026-04-27 19:05 45.96613 3.27631 37097 ft 431 kts 202°
2026-04-27 19:05 45.90932 3.24952 37101 ft 430 kts 202°
2026-04-27 19:06 45.85243 3.22275 37105 ft 430 kts 202°
2026-04-27 19:06 45.82283 3.21268 37098 ft 436 kts 189°
2026-04-27 19:06 45.79241 3.21415 37104 ft 445 kts 174°
2026-04-27 19:06 45.76260 3.22742 37110 ft 455 kts 159°
2026-04-27 19:07 45.73494 3.24986 37114 ft 460 kts 150°
2026-04-27 19:07 45.68273 3.30273 37113 ft 461 kts 147°
2026-04-27 19:08 45.63105 3.35720 37114 ft 462 kts 147°
2026-04-27 19:08 45.57956 3.41144 36535 ft 458 kts 147°
2026-04-27 19:08 45.55390 3.43844 35845 ft 458 kts 147°
2026-04-27 19:09 45.52825 3.46540 35138 ft 459 kts 147°
2026-04-27 19:09 45.50226 3.49298 34413 ft 461 kts 146°
2026-04-27 19:09 45.47658 3.52033 33685 ft 462 kts 147°
2026-04-27 19:09 45.45099 3.54738 33130 ft 458 kts 147°
2026-04-27 19:10 45.42549 3.57421 32595 ft 455 kts 147°
2026-04-27 19:10 45.40013 3.60079 32066 ft 451 kts 147°
2026-04-27 19:10 45.37499 3.62706 31544 ft 447 kts 147°
2026-04-27 19:10 45.35848 3.64430 31199 ft 445 kts 147°
2026-04-27 19:11 45.32530 3.67889 30514 ft 441 kts 147°
2026-04-27 19:11 45.30069 3.70451 30012 ft 438 kts 147°
2026-04-27 19:11 45.27680 3.73124 29514 ft 437 kts 141°
2026-04-27 19:11 45.25543 3.76158 29107 ft 434 kts 134°
2026-04-27 19:12 45.23635 3.79584 28662 ft 439 kts 127°
2026-04-27 19:12 45.21927 3.83170 28257 ft 442 kts 125°
2026-04-27 19:12 45.20285 3.86840 27854 ft 440 kts 124°
2026-04-27 19:12 45.18660 3.90494 27455 ft 436 kts 124°
2026-04-27 19:13 45.17044 3.94090 27064 ft 433 kts 124°
2026-04-27 19:13 45.15424 3.97665 26677 ft 430 kts 124°
2026-04-27 19:13 45.13809 4.01210 26289 ft 427 kts 125°
2026-04-27 19:13 45.12201 4.04727 25902 ft 425 kts 125°
2026-04-27 19:14 45.10600 4.08221 25521 ft 422 kts 125°
2026-04-27 19:14 45.09011 4.11680 25145 ft 419 kts 125°
2026-04-27 19:14 45.07430 4.15121 24774 ft 417 kts 125°
2026-04-27 19:14 45.05856 4.18541 24403 ft 414 kts 125°
2026-04-27 19:15 45.04143 4.21767 24034 ft 409 kts 134°
2026-04-27 19:15 45.02078 4.24559 23653 ft 403 kts 144°
2026-04-27 19:15 44.99818 4.26837 23282 ft 399 kts 150°
2026-04-27 19:15 44.97467 4.28860 22856 ft 395 kts 153°
2026-04-27 19:16 44.95100 4.30779 22497 ft 391 kts 152°
2026-04-27 19:16 44.93541 4.32056 22262 ft 390 kts 152°
2026-04-27 19:16 44.90421 4.34608 21796 ft 387 kts 152°
2026-04-27 19:16 44.88105 4.36501 21451 ft 385 kts 152°
2026-04-27 19:17 44.85803 4.38381 21109 ft 383 kts 152°
2026-04-27 19:17 44.83508 4.40253 20767 ft 381 kts 152°
2026-04-27 19:17 44.81225 4.42114 20426 ft 378 kts 152°
2026-04-27 19:17 44.78957 4.43961 20087 ft 375 kts 152°
2026-04-27 19:18 44.76680 4.45813 19747 ft 373 kts 152°
2026-04-27 19:18 44.74443 4.47633 19417 ft 371 kts 152°
2026-04-27 19:18 44.72218 4.49442 19086 ft 369 kts 152°
2026-04-27 19:18 44.70006 4.51238 18755 ft 369 kts 152°
2026-04-27 19:19 44.67743 4.52918 18424 ft 366 kts 157°
2026-04-27 19:19 44.65379 4.54209 18094 ft 362 kts 164°
2026-04-27 19:19 44.62970 4.55121 17774 ft 357 kts 168°
2026-04-27 19:19 44.60566 4.55861 17457 ft 352 kts 169°
2026-04-27 19:20 44.58184 4.56571 17142 ft 348 kts 169°
2026-04-27 19:20 44.55831 4.57280 16831 ft 344 kts 168°
2026-04-27 19:20 44.53507 4.57988 16524 ft 341 kts 168°
2026-04-27 19:20 44.51195 4.58697 16217 ft 339 kts 168°
2026-04-27 19:21 44.48904 4.59402 15914 ft 338 kts 168°
2026-04-27 19:21 44.46582 4.60119 15608 ft 337 kts 167°
2026-04-27 19:21 44.44303 4.60824 15310 ft 336 kts 168°
2026-04-27 19:21 44.42020 4.61531 15012 ft 336 kts 168°
2026-04-27 19:22 44.39747 4.62235 14713 ft 334 kts 167°
2026-04-27 19:22 44.37495 4.62933 14417 ft 332 kts 167°
2026-04-27 19:22 44.35241 4.63631 14119 ft 331 kts 167°
2026-04-27 19:22 44.32992 4.64328 13821 ft 332 kts 166°
2026-04-27 19:23 44.30728 4.64997 13522 ft 334 kts 168°
2026-04-27 19:23 44.28416 4.65446 13225 ft 337 kts 173°
2026-04-27 19:23 44.26092 4.65762 12930 ft 336 kts 174°
2026-04-27 19:23 44.23763 4.66047 12633 ft 334 kts 174°
2026-04-27 19:24 44.21433 4.66353 12333 ft 332 kts 173°
2026-04-27 19:24 44.19154 4.66667 12040 ft 328 kts 173°
2026-04-27 19:24 44.16902 4.66986 11750 ft 324 kts 174°
2026-04-27 19:24 44.14677 4.67306 11462 ft 319 kts 174°
2026-04-27 19:25 44.12500 4.67749 11177 ft 316 kts 167°
2026-04-27 19:25 44.10380 4.68661 10892 ft 312 kts 160°
2026-04-27 19:25 44.08372 4.69726 10614 ft 309 kts 158°
2026-04-27 19:25 44.06395 4.70835 10338 ft 305 kts 158°
2026-04-27 19:26 44.04419 4.71948 10143 ft 299 kts 158°
2026-04-27 19:26 44.02520 4.73017 9954 ft 293 kts 158°
2026-04-27 19:26 44.00622 4.74087 9652 ft 292 kts 157°
2026-04-27 19:26 43.98785 4.75121 9602 ft 280 kts 157°
2026-04-27 19:27 43.97007 4.76122 9273 ft 274 kts 157°
2026-04-27 19:27 43.95239 4.77117 8780 ft 275 kts 157°
2026-04-27 19:27 43.93471 4.78112 8326 ft 274 kts 157°
2026-04-27 19:27 43.91714 4.79102 7917 ft 273 kts 157°
2026-04-27 19:28 43.89957 4.80104 7591 ft 273 kts 157°
2026-04-27 19:28 43.88216 4.81092 7317 ft 271 kts 157°
2026-04-27 19:28 43.86476 4.82076 7012 ft 270 kts 157°
2026-04-27 19:28 43.84746 4.83053 6711 ft 268 kts 157°
2026-04-27 19:29 43.83003 4.84034 6403 ft 264 kts 158°
2026-04-27 19:29 43.81345 4.84966 6256 ft 251 kts 157°
2026-04-27 19:29 43.79775 4.85847 6151 ft 237 kts 157°
2026-04-27 19:29 43.78277 4.86687 5941 ft 229 kts 157°
2026-04-27 19:30 43.76827 4.87499 5679 ft 228 kts 157°
2026-04-27 19:30 43.75350 4.88326 5429 ft 226 kts 158°
2026-04-27 19:30 43.73896 4.89139 5152 ft 226 kts 158°
2026-04-27 19:30 43.72440 4.89953 4885 ft 225 kts 158°
2026-04-27 19:31 43.70997 4.90759 4632 ft 223 kts 158°
2026-04-27 19:31 43.69564 4.91560 4371 ft 222 kts 159°
2026-04-27 19:31 43.68138 4.92356 4139 ft 219 kts 159°
2026-04-27 19:31 43.66734 4.93138 4013 ft 218 kts 159°
2026-04-27 19:32 43.65464 4.93846 4011 ft 218 kts 159°
2026-04-27 19:32 43.64062 4.94628 4013 ft 218 kts 159°
2026-04-27 19:32 43.62635 4.95424 4014 ft 218 kts 158°
2026-04-27 19:32 43.61341 4.96439 4005 ft 218 kts 142°
2026-04-27 19:33 43.60232 4.97869 4019 ft 219 kts 135°
2026-04-27 19:33 43.59876 4.98379 4018 ft 219 kts 134°
2026-04-27 19:33 43.58111 5.00904 4016 ft 220 kts 135°
2026-04-27 19:33 43.57025 5.02427 3892 ft 229 kts 135°
2026-04-27 19:34 43.55858 5.04055 3339 ft 243 kts 135°
2026-04-27 19:34 43.54688 5.05682 2990 ft 238 kts 135°
2026-04-27 19:34 43.53534 5.07284 2674 ft 231 kts 136°
2026-04-27 19:34 43.52290 5.09004 2497 ft 285 kts 137°
2026-04-27 19:35 43.50628 5.10687 3326 ft 305 kts 151°
2026-04-27 19:35 43.48787 5.12059 3709 ft 297 kts 154°
2026-04-27 19:35 43.46838 5.12699 3654 ft 284 kts 182°
2026-04-27 19:35 43.45585 5.12328 3583 ft 275 kts 202°
2026-04-27 19:36 43.43869 5.09992 3506 ft 258 kts 247°
2026-04-27 19:36 43.43653 5.08404 3498 ft 248 kts 271°
2026-04-27 19:36 43.44182 5.06251 3494 ft 234 kts 303°
2026-04-27 19:36 43.45188 5.04582 3504 ft 220 kts 311°
2026-04-27 19:37 43.46221 5.03118 3488 ft 207 kts 315°
2026-04-27 19:37 43.47214 5.01799 3501 ft 192 kts 315°
2026-04-27 19:37 43.48157 5.00555 3487 ft 185 kts 315°
2026-04-27 19:37 43.49061 4.99362 3522 ft 176 kts 315°
2026-04-27 19:38 43.49951 4.98242 3500 ft 173 kts 323°
2026-04-27 19:38 43.51101 4.97916 3422 ft 173 kts 14°
2026-04-27 19:38 43.52068 4.98826 3495 ft 171 kts 47°
2026-04-27 19:38 43.52892 5.00105 3389 ft 183 kts 49°
2026-04-27 19:39 43.53736 5.01431 3211 ft 182 kts 49°
2026-04-27 19:39 43.54485 5.02759 3090 ft 172 kts 69°
2026-04-27 19:39 43.54512 5.04305 3064 ft 156 kts 105°
2026-04-27 19:39 43.54108 5.05649 2934 ft 150 kts 120°
2026-04-27 19:40 43.53526 5.06819 2742 ft 148 kts 129°
2026-04-27 19:40 43.52878 5.07930 2536 ft 151 kts 130°
2026-04-27 19:40 43.52198 5.09038 2330 ft 151 kts 133°
2026-04-27 19:40 43.51480 5.10099 2130 ft 151 kts 136°
2026-04-27 19:41 43.50752 5.11128 1926 ft 150 kts 137°
2026-04-27 19:41 43.50003 5.12173 1724 ft 153 kts 136°
2026-04-27 19:41 43.49252 5.13215 1527 ft 155 kts 137°
2026-04-27 19:41 43.48493 5.14266 1326 ft 154 kts 137°
2026-04-27 19:42 43.47740 5.15310 1119 ft 154 kts 137°
2026-04-27 19:42 43.46999 5.16335 914 ft 149 kts 137°
2026-04-27 19:42 43.46283 5.17325 720 ft 143 kts 137°
2026-04-27 19:42 43.45590 5.18285 534 ft 140 kts 137°
2026-04-27 19:43 43.44908 5.19227 350 ft 139 kts 137°
2026-04-27 19:43 43.44227 5.20170 102 ft 140 kts 137°
2026-04-27 19:43 43.43578 5.21077 19 ft 119 kts 136°
2026-04-27 19:43 43.43237 5.21542 18 ft 32 kts 135°
2026-04-27 19:44 43.43082 5.21751 18 ft 30 kts 134°
2026-04-27 19:44 43.42941 5.21949 18 ft 20 kts 122°
2026-04-27 19:44 43.42944 5.22147 18 ft 25 kts 79°
2026-04-27 19:44 43.43015 5.22392 18 ft 28 kts 33°
2026-04-27 19:45 43.43171 5.22498 18 ft 23 kts
2026-04-27 19:45 43.43287 5.22382 18 ft 23 kts 312°
2026-04-27 19:45 43.43442 5.22266 18 ft 29 kts 330°
2026-04-27 19:45 43.43610 5.22130 18 ft 21 kts 330°
2026-04-27 19:46 43.43689 5.22134 18 ft 10 kts 45°
2026-04-27 19:46 43.43748 5.22234 18 ft 18 kts 55°
2026-04-27 19:46 43.43813 5.22335 18 ft 6 kts 47°
2026-04-27 19:46 43.43814 5.22337 18 ft 0 kts 47°